This demonstration page uses our WeatherBlox Daily Observations layout. Learn more.

Left ArrowRight Arrow

Hourly Observations for December 21, 2015

Temp ( °F °C ) Dew Point ( °F °C ) Humidity (%) Winds ( mph kmh ) Pressure ( in mb ) Visibility ( mi km ) Precip ( " mm )
12:23 am 00:23 Cloudy with Mist and Fog 32 0 30 -1 93 93 N 9 15 29.77 1008 5 8 0.00 0.00
12:50 am 00:50 Cloudy with Mist and Fog 32 0 30 -1 93 93 N 12 19 29.77 1008 5 8 0.00 0.00
12:58 am 00:58 Cloudy with Mist and Fog 32 -0.2 30 -1.2 93 93 NNW 10 17 29.75 1007 5 8 0.00 0.00
1:29 am 01:29 Cloudy with Mist and Fog 32 0 30 -1 93 93 NNW 14 22 29.77 1008 5 8 0.00 0.00
1:58 am 01:58 Cloudy with Mist and Fog 31 -0.5 30 -1.3 94 94 NNW 15 24 29.74 1007 5 8 0.00 0.00
2:52 am 02:52 Cloudy with Mist and Fog 32 0 30 -1 93 93 NW 14 22 29.77 1008 5 8 0.00 0.00
2:58 am 02:58 Cloudy with Mist and Fog 31 -0.4 30 -1.2 94 94 NNW 10 17 29.78 1008 5 8 0.00 0.00
3:02 am 03:02 Cloudy with Mist and Fog 32 0 30 -1 93 93 NNW 9 15 29.80 1009 5 8 0.00 0.00
3:09 am 03:09 Cloudy with Mist and Fog 32 0 30 -1 93 93 NNW 14 22 29.80 1009 5 8 0.00 0.00
3:58 am 03:58 Cloudy with Mist and Fog 31 -0.3 29 -1.4 92 92 NNW 13 20 29.80 1009 6 10 0.00 0.00
4:38 am 04:38 Cloudy with Mist and Fog 32 0 28 -2 87 87 NNW 12 19 29.80 1009 5 8 0.00 0.00
4:58 am 04:58 Cloudy with Mist and Fog 31 -0.7 29 -1.7 93 93 NNW 14 22 29.80 1009 5 8 0.00 0.00
5:12 am 05:12 Cloudy with Mist and Fog 32 0 28 -2 87 87 NNW 14 22 29.80 1009 5 8 0.00 0.00
5:58 am 05:58 Cloudy with Mist and Fog 30 -0.9 29 -1.6 95 95 NW 10 17 29.80 1009 5 8 0.00 0.00
6:14 am 06:14 Cloudy with Mist and Fog 32 0 28 -2 87 87 NNW 14 22 29.80 1009 5 8 0.00 0.00
6:28 am 06:28 Cloudy with Mist and Fog 32 0 28 -2 87 87 NW 12 19 29.83 1010 5 8 0.00 0.00
6:53 am 06:53 Cloudy with Mist and Fog 30 -1 28 -2 93 93 NNW 10 17 29.85 1011 5 8 0.00 0.00
6:58 am 06:58 Cloudy with Mist and Fog 30 -1.1 28 -2.5 90 90 NNW 8 13 29.84 1011 5 8 0.00 0.00
7:27 am 07:27 Cloudy with Mist and Fog 30 -1 27 -3 86 86 NW 13 20 29.88 1012 5 8 0.00 0.00
7:58 am 07:58 Cloudy with Mist and Fog 29 -1.4 27 -3 89 89 NNW 9 15 29.88 1012 6 10 0.00 0.00
8:58 am 08:58 Cloudy with Mist and Fog 29 -1.7 26 -3.4 88 88 NW 12 19 29.93 1014 6 10 0.00 0.00
9:58 am 09:58 Cloudy with Mist and Fog 29 -1.6 26 -3.4 88 88 NW 9 15 29.96 1015 6 10 0.00 0.00
10:01 am 10:01 Cloudy 28 -2 27 -3 93 93 NW 9 15 29.97 1015 10 16 0.00 0.00
10:04 am 10:04 Cloudy 28 -2 27 -3 93 93 NNW 12 19 29.97 1015 7 11 0.00 0.00
10:27 am 10:27 Cloudy 30 -1 25 -4 80 80 VRB 6 9 29.97 1015 10 16 0.00 0.00
10:58 am 10:58 Cloudy 29 -1.4 26 -3.4 86 86 WNW 9 15 29.97 1015 10 16 0.00 0.00
11:24 am 11:24 Cloudy 30 -1 25 -4 80 80 WNW 8 13 29.97 1015 10 16 0.00 0.00
11:58 am 11:58 Cloudy 30 -1.2 25 -3.7 83 83 VRB 6 9 29.94 1014 10 16 0.00 0.00
12:58 pm 12:58 Cloudy 30 -1.2 25 -3.9 82 82 WNW 7 11 29.93 1014 10 16 0.00 0.00
1:58 pm 13:58 Cloudy 30 -0.9 25 -4.1 79 79 WNW 8 13 29.91 1013 10 16 0.00 0.00
2:58 pm 14:58 Cloudy 30 -1 24 -4.3 79 79 WNW 10 17 29.92 1013 10 16 0.00 0.00
3:58 pm 15:58 Cloudy 29 -1.5 24 -4.4 81 81 W 8 13 29.93 1014 10 16 0.00 0.00
4:58 pm 16:58 Cloudy 28 -2.1 24 -4.6 83 83 SW 5 7 29.93 1013 10 16 0.00 0.00
5:58 pm 17:58 Cloudy 28 -2.2 24 -4.4 85 85 W 2 4 29.93 1014 10 16 0.00 0.00
6:08 pm 18:08 Cloudy 28 -2 25 -4 86 86 SW 5 7 29.94 1014 10 16 0.00 0.00
6:48 pm 18:48 Cloudy 28 -2 25 -4 86 86 WSW 3 6 29.94 1014 10 16 0.00 0.00
6:58 pm 18:58 Cloudy 28 -2.5 24 -4.5 86 86 Calm 29.93 1014 10 16 0.00 0.00
7:46 pm 19:46 Cloudy 28 -2 25 -4 86 86 WSW 5 7 29.94 1014 10 16 0.00 0.00
7:47 pm 19:47 Cloudy 28 -2 25 -4 86 86 SW 5 7 29.94 1014 10 16 0.00 0.00
7:58 pm 19:58 Cloudy 28 -2.5 24 -4.4 87 87 W 5 7 29.93 1013 10 16 0.00 0.00
8:17 pm 20:17 Cloudy 28 -2 25 -4 86 86 WNW 3 6 29.94 1014 10 16 0.00 0.00
8:26 pm 20:26 Cloudy 28 -2 25 -4 86 86 W 2 4 29.94 1014 10 16 0.00 0.00
8:58 pm 20:58 Cloudy 28 -2.4 24 -4.4 86 86 Calm 29.92 1013 10 16 0.00 0.00
9:48 pm 21:48 Cloudy 28 -2 25 -4 86 86 SSE 5 7 29.91 1013 10 16 0.00 0.00
9:58 pm 21:58 Cloudy 28 -2.5 25 -4.1 89 89 SSE 3 6 29.91 1013 10 16 0.00 0.00
10:01 pm 22:01 Cloudy 28 -2 25 -4 86 86 S 5 7 29.91 1013 10 16 0.00 0.00
10:03 pm 22:03 Cloudy 28 -2 25 -4 86 86 S 5 7 29.91 1013 10 16 0.00 0.00
10:58 pm 22:58 Cloudy 28 -2.4 25 -3.8 90 90 S 6 9 29.89 1012 10 16 0.00 0.00
11:50 pm 23:50 Cloudy 28 -2 25 -4 86 86 S 8 13 29.88 1012 10 16 0.00 0.00
11:58 pm 23:58 Cloudy 28 -2.4 25 -3.8 90 90 S 8 13 29.88 1012 10 16 0.00 0.00

Powered by AerisWeather